www.pogodaiklimat.ru

Погода и климат >> Архив погоды >> Россия >> Якутия >> Усть-Мая


АРХИВ ПОГОДЫ в Усть-Мае

Время (UTC), дата Ветер
(напр.,м/с)
 
Видим.   Явления Облачность Т
(С)
Тd
(С)
f
(%)
Тe
(С)
Тes
(С)
Комфортность P
(гПа)
Po
(гПа)
Тmin
(С)
Tmax
(С)
R
(мм)
R24
(мм)
S
(см)
09 13.09 ЮЗ 2 20 км слаб. ливневой дождь 10/10 330 м
[Cb cap]
+9.7 +9.4 98 +8 +8 996.7 976.7 +14.9 5
12 13.09 ЮЗ 2 20 км слаб. дождь 10/3 1000 м
[Sc As op]
+9.1 +8.8 98 +7 +7 997.8 977.7
15 13.09 СЗ 3 20 км слаб. дождь 10/0
[As op]
+7.2 +6.3 94 +4 +4 998.5 978.3
18 13.09 СЗ 3 20 км слаб. дождь 10/0
[As op]
+4.9 +3.8 93 +1 +1 999.5 979.0
21 13.09 СЗ 3 10 км слаб. дождь 10/0
[As op]
+4.3 +3.1 92 +1 +1 1000.8 980.2 +4.3 12
00 14.09 З 3 50 км {дождь} 10/4 300 м
[Frnb Ac As]
+3.1 +0.8 85 -1 -0 1002.4 981.8 +3.1
03 14.09 СЗ 4 50 км 10/0
[Ac As]
+4.8 -2.2 60 +1 +2 1003.3 982.7
06 14.09 СЗ 3
{10}
50 км 10/0
[Ac As]
+7.2 -6.0 38 +5 +6 1003.9 983.4
09 14.09 СЗ 2 50 км 8/0
[Ac trans Ci fib]
+7.2 -6.6 37 +6 +6 1004.5 984.1 +8.1 1
12 14.09 З 1 50 км 3/0
[Ac trans Ci fib]
-0.7 -5.3 71 -2 -2 1006.3 985.3
15 14.09 ЮЗ 1 50 км 3/0
[Ci fib]
-3.0 -5.4 83 -5 -5 1007.1 985.9
18 14.09 З 2 50 км ясно +3.9 -6.6 46 +2 +2 1007.4 986.1
21 14.09 З 1 2000 м дымка 3/3 300 м
[St]
-4.8 -5.5 95 -7 -7 1007.4 986.0 -6.3
00 15.09 Ю 1 50 км {туман} 3/3 300 м
[St Ac trans]
+0.6 -2.4 80 -1 +1 1006.8 985.8
03 15.09 Ю 1 50 км 3/0
[Ac trans Ci fib]
+8.2 -7.1 33 +8 +14 1005.2 984.9
06 15.09 СВ 1 50 км 1/0
[Ci fib]
+10.5 -6.0 31 +11 +14 1003.3 983.1
09 15.09 В 1 50 км ясно +9.1 -4.6 38 +9 +9 1003.3 983.0 +11.1
12 15.09 штиль 0 50 км ясно -1.3 -4.5 79 -2 -2 1004.9 983.8
15 15.09 СЗ 2 50 км ясно -3.1 -6.0 80 -7 -7 1005.2 983.9
18 15.09 С 2 50 км 5/0
[Cs]
-3.9 -5.1 91 -8 -8 1004.5 983.2
21 15.09 С 2 50 км 10/0
[Ac As]
-3.0 -4.3 91 -7 -7 1003.3 982.1 -4.0
00 16.09 С 1 50 км 10/4 1000 м
[Sc As trans]
+0.4 -1.4 88 -2 -1 1003.3 982.5
03 16.09 СВ 2 50 км 10/4 1000 м
[Sc Ac As]
+4.8 -0.2 70 +2 +3 1002.0 981.5
06 16.09 С 2 50 км {дождь} 10/8 900 м
[Cb cap As op]
+5.7 +0.8 71 +3 +4 1001.7 981.2
09 16.09 В 2 20 км в посл. час ливневой дождь 10/8 540 м
[Cb cap As op]
+5.7 +4.4 91 +3 +3 1002.1 981.7 +5.8 2
12 16.09 С 1 20 км слаб. ливневой дождь 10/8 960 м
[Cb cap Ac As]
+4.9 +4.5 97 +3 +3 1001.7 981.2
15 16.09 С 2 20 км слаб. дождь 10/6 1020 м
[Sc As op]
+4.5 +4.1 97 +2 +2 1000.5 980.0
18 16.09 ЮВ 3 20 км слаб. дождь 10/4 1000 м
[Sc As op]
+5.2 +4.0 92 +2 +2 1000.5 980.0
21 16.09 ЮВ 1 50 км {дождь} 8/8 660 м
[Cb cap]
+3.3 +2.0 91 +2 +2 1003.2 982.5 +3.0 2
00 17.09 В 2 50 км {дождь} 6/4 1000 м
[Sc Ac trans Ci fib]
+5.5 +2.3 80 +3 +4 1003.5 983.0 +2.9
03 17.09 В 4 50 км 9/9 1080 м
[Cb cap]
+6.1 +0.1 65 +3 +3 1003.9 983.4
06 17.09 ЮВ 2 50 км слаб. ливневой дождь 10/10 900 м
[Cb cap]
+6.0 +1.2 71 +4 +4 1004.7 984.2
09 17.09 З 2 50 км {ливн. осадки} 9/6 1050 м
[Cb cap Ac trans]
+4.7 +1.8 81 +2 +2 1006.1 985.5 +7.6 0.0
12 17.09 ЮЗ 2 50 км {ливн. осадки} 10/9 960 м
[Cb cap Ac trans]
+3.2 +1.7 90 0 0 1007.7 987.0
15 17.09 ЮВ 4 50 км 10/8 570 м
[Cb cap Ac trans]
+2.0 +0.5 90 -3 -3 1008.7 987.8
18 17.09 Ю 5 50 км 10/8 420 м
[Cb cap Ac trans]
+1.9 +0.9 93 -4 -4 1009.3 988.4
21 17.09 Ю 4 50 км 10/9 480 м
[Cb cap Ac As]
+2.1 +0.9 92 -3 -3 1010.7 989.8 +1.6 0.4
00 18.09 Ю 4 50 км 10/9 450 м
[Cb cap Ac trans]
+3.1 +0.7 84 -2 -1 1011.8 990.9
03 18.09 ЮВ 3 50 км 10/8 930 м
[Cb cap Ac As]
+5.7 +0.7 70 +3 +3 1012.5 991.8
06 18.09 ЮЗ 3 50 км в посл. час ливневой дождь 9/6 600 м
[Cb cap Ci fib]
+6.6 +1.5 70 +4 +5 1013.3 992.7
09 18.09 ЮЗ 1 50 км 9/6 600 м
[Cb cap Ci fib]
+5.8 +0.9 71 +5 +5 1015.0 994.3 +7.4 0.0
12 18.09 ЮЗ 2 50 км 8/4 600 м
[Cb cap Ac trans]
+3.5 +1.4 86 +1 +1 1016.9 995.9
15 18.09 ЮЗ 1 50 км 6/3 1000 м
[Sc Ac trans]
+2.1 +1.0 92 0 0 1017.3 996.2
18 18.09 штиль 0 50 км 6/0
[Ac trans]
-1.1 -1.5 97 -2 -2 1017.6 996.3
21 18.09 Ю 1 1000 м дымка 6/0
[Ac trans]
+0.1 -0.1 99 -2 -2 1017.9 996.7 -1.9
00 19.09 Ю 1 4000 м дымка 9/9 120 м
[St]
+1.1 +0.9 99 -1 -1 1017.5 996.3
03 19.09 В 1 50 км 9/5 600 м
[Cu med, cong Cs]
+6.1 +0.7 68 +5 +8 1016.0 995.3
06 19.09 В 2 50 км 10/5 600 м
[Sc diur, vesp Cs]
+8.3 +1.1 60 +7 +8 1013.3 992.8
09 19.09 В 1 50 км 8/0
[Ac As Cs]
+6.7 +1.0 67 +6 +6 1012.0 991.4 +9.0
12 19.09 СВ 1 50 км 4/0
[Ac trans]
+4.7 +1.2 78 +4 +4 1011.6 990.9
15 19.09 штиль 0 50 км 10/0
[Ac trans Cs]
+2.7 +0.1 83 +2 +2 1011.2 990.4
18 19.09 Ю 3 50 км 10/3 1000 м
[Sc As trans]
+3.9 -0.2 75 0 0 1011.5 990.7
21 19.09 ЮЗ 2 20 км слаб. дождь 10/0
[As op]
+4.1 +3.2 94 +1 +1 1013.6 992.8 +2.6 0.5
00 20.09 Ю 2 20 км слаб. дождь 10/0
[As op]
+4.8 +3.9 94 +2 +2 1015.0 994.2
03 20.09 ЮЗ 6 50 км {дождь} 10/8 870 м
[Cb cap As trans]
+6.5 +1.9 72 +2 +2 1015.5 994.8
06 20.09 З 3 50 км {дождь} 10/8 900 м
[Cb cap As trans]
+6.9 -1.8 54 +4 +5 1016.2 995.5

 

Местоположение метеостанции Усть-Мая (Якутия, Россия): широта 60.35 долгота 134.40 высота над уровнем моря 170 м.

В архиве по умолчанию представлена погода в Усть-Мае за последнюю неделю. Архивные данные за месяц целиком и за предыдущие месяцы, начиная с января 2011 года, Вы можете получить, выбрав интересующий диапазон дат из раскрывающегося списка и нажав кнопку "Ввод!".


*Определитесь, кто Вы:
робот инопланетянин человек

Внимание! Время в таблицах - всемирное. Для получения местного времени необходимо прибавить поправку, которая равна 9 ч.

Смотрите также архив погоды в соседних городах и на ближайших метеорологических станциях:

Погода в Усть-Миле (Якутия, Россия) (112 км)
Погода в Усть-Юдоме (Якутия, Россия) (136 км)
Погода в Амге (Якутия, Россия) (149 км)
Погода в Охотском Перевозе (Якутия, Россия) (179 км)
Погода в Югоренке (Якутия, Россия) (189 км)
Погода в Чурапче (Якутия, Россия) (210 км)
Погода в Ытык-Кюёле (Якутия, Россия) (230 км)
Погода в Тегюльте (Якутия, Россия) (242 км)
Погода в Крест-Хальджае (Якутия, Россия) (275 км)
Погода в Учуре (Якутия, Россия) (280 км)

Пояснения к столбцам:

Ветер - указаны скорость ветра в м/с - средняя за 10 мин, порывы в срок и между сроками (в фигурных скобках) и направление, откуда дует ветер: С - северный, СВ - северо-восточный, В - восточный, ЮВ - юго-восточный, Ю - южный, ЮЗ - юго-западный, З - западный, СЗ - северо-западный.
Видимость - горизонтальная дальность видимости в метрах или километрах. При видимости от 1 до 10 км при отсутствии осадков обычно наблюдается дымка, при ухудшении видимости до 1 км и менее - туман. В сухую погоду видимость может ухудшаться дымом, пылью или мглою.
Явления - указаны атмосферные явления, наблюдавшиеся в срок или в последний час перед сроком; фигурными скобками обозначены явления, наблюдавшиеся между сроками (за 1-3 часа до срока); квадратными скобками обозначены град или гололедные отложения с указанием их диаметра в мм.
Облачность - указаны через наклонную черту общая и нижняя облачность в баллах и высота нижней границы облаков в метрах; квадратными скобками обозначены формы облаков: Ci - перистые, Cs - перисто-слоистые, Cc - перисто-кучевые, Ac - высококучевые, As - высокослоистые, Sc - слоисто-кучевые, Ns - слоисто-дождевые, Cu - кучевые, Cb - кучево-дождевые. Подробнее классификацию облаков см. в Атласе облаков (PDF).
T - Температура воздуха - температура, измеренная на высоте 2 м над землей.
Td - Температура точки росы - температура, при понижении до которой содержащийся в воздухе водяной пар достигнет насыщения.
f - Относительная влажность воздуха - влажноcть воздуха, измеренная на высоте 2 м над землей.
Te - Эффективная температура - температура, которую ощущает одетый по сезону человек в тени. Характеристика душности погоды. При расчете учитывается влияние влажности воздуха и скорости ветра на теплоощущения человека.
Tes - Эффективная температура на солнце - температура, которую ощущает человек, с поправкой на солнечный нагрев. Характеристика знойности погоды. Зависит от высоты солнца над горизонтом, облачности и скорости ветра. Ночью, в пасмурную погоду, а также при ветре 12 м/с и более поправка равна нулю.
P - Атмосферное давление - приведенное к уровню моря атмосферное давление.
Po - Атмосферное давление - измеренное на уровне метеостанции атмосферное давление.
Tmin - Минимальная температура - минимум температуры воздуха на высоте 2 м над землей.
Tmax - Максимальная температура - максимум температуры воздуха на высоте 2 м над землей.
R - Количество осадков - Количество выпавших осадков за период времени, мм. При наведении курсора мыши на число - период времени, за который выпало указанное количество осадков.
R24 - Количество осадков - Количество выпавших осадков за 24 часа, мм.
S - Снежный покров - Высота снежного покрова, см. При наведении курсора мыши на число - состояние снежного покрова и степень покрытия местности в баллах.